Time,TemperatureF,DewpointF,PressureIn,WindDirection,WindDirectionDegrees,WindSpeedMPH,WindSpeedGustMPH,Humidity,HourlyPrecipIn,Conditions,Clouds,dailyrainin,SoftwareType,DateUTC
2013-03-14 00:02:00,59.0,-99.9,30.27,East,84,0.0,0.0,-999,0.00,,,0.00,,2013-03-14 07:02:00,
2013-03-14 00:12:00,59.0,-99.9,30.27,East,84,0.0,0.0,-999,0.00,,,0.00,,2013-03-14 07:12:00,
2013-03-14 00:22:00,57.0,-99.9,30.27,East,84,0.0,0.0,-999,0.00,,,0.00,,2013-03-14 07:22:00,
2013-03-14 00:32:00,56.0,-99.9,30.27,East,84,0.0,0.0,-999,0.00,,,0.00,,2013-03-14 07:32:00,
2013-03-14 00:43:00,56.0,-99.9,30.27,East,84,0.0,0.0,-999,0.00,,,0.00,,2013-03-14 07:43:00,
2013-03-14 00:52:00,56.0,-99.9,30.27,East,84,0.0,0.0,-999,0.00,,,0.00,,2013-03-14 07:52:00,
2013-03-14 01:02:00,54.0,-99.9,30.27,East,84,0.0,0.0,-999,0.00,,,0.00,,2013-03-14 08:02:00,
2013-03-14 01:12:00,54.0,-99.9,30.27,East,84,0.0,0.0,-999,0.00,,,0.00,,2013-03-14 08:12:00,
2013-03-14 01:22:00,54.0,-99.9,30.28,East,84,0.0,0.0,-999,0.00,,,0.00,,2013-03-14 08:22:00,
2013-03-14 01:32:00,53.0,-99.9,30.28,East,84,0.0,0.0,-999,0.00,,,0.00,,2013-03-14 08:32:00,
2013-03-14 01:42:00,53.0,-99.9,30.28,East,84,0.0,0.0,-999,0.00,,,0.00,,2013-03-14 08:42:00,
2013-03-14 01:52:00,53.0,-99.9,30.28,East,84,0.0,0.0,-999,0.00,,,0.00,,2013-03-14 08:52:00,
2013-03-14 02:02:00,53.0,-99.9,30.28,East,84,0.0,0.0,-999,0.00,,,0.00,,2013-03-14 09:02:00,
2013-03-14 02:12:00,53.0,-99.9,30.28,East,84,0.0,0.0,-999,0.00,,,0.00,,2013-03-14 09:12:00,
2013-03-14 02:22:00,53.0,-99.9,30.28,East,84,0.0,0.0,-999,0.00,,,0.00,,2013-03-14 09:22:00,
2013-03-14 02:32:00,53.0,-99.9,30.27,East,84,0.0,0.0,-999,0.00,,,0.00,,2013-03-14 09:32:00,
2013-03-14 02:42:00,53.0,-99.9,30.27,East,84,0.0,0.0,-999,0.00,,,0.00,,2013-03-14 09:42:00,
2013-03-14 02:52:00,53.0,-99.9,30.28,East,84,0.0,0.0,-999,0.00,,,0.00,,2013-03-14 09:52:00,
2013-03-14 03:02:00,50.0,-99.9,30.28,East,84,0.0,0.0,-999,0.00,,,0.00,,2013-03-14 10:02:00,
2013-03-14 03:12:00,50.0,-99.9,30.28,East,84,0.0,0.0,-999,0.00,,,0.00,,2013-03-14 10:12:00,
2013-03-14 03:22:00,50.0,-99.9,30.28,East,84,0.0,0.0,-999,0.00,,,0.00,,2013-03-14 10:22:00,
2013-03-14 03:32:00,49.0,-99.9,30.28,East,84,0.0,0.0,-999,0.00,,,0.00,,2013-03-14 10:32:00,
2013-03-14 03:42:00,49.0,-99.9,30.28,East,84,0.0,0.0,-999,0.00,,,0.00,,2013-03-14 10:42:00,
2013-03-14 03:52:00,49.0,-99.9,30.28,East,84,0.0,0.0,-999,0.00,,,0.00,,2013-03-14 10:52:00,
2013-03-14 04:02:00,49.0,-99.9,30.28,East,84,0.0,0.0,-999,0.00,,,0.00,,2013-03-14 11:02:00,
2013-03-14 04:12:00,49.0,-99.9,30.28,East,84,0.0,0.0,-999,0.00,,,0.00,,2013-03-14 11:12:00,
2013-03-14 04:22:00,49.0,-99.9,30.28,East,84,0.0,0.0,-999,0.00,,,0.00,,2013-03-14 11:22:00,
2013-03-14 04:33:00,47.0,-99.9,30.28,East,84,0.0,0.0,-999,0.00,,,0.00,,2013-03-14 11:33:00,
2013-03-14 04:42:00,47.0,-99.9,30.28,East,84,0.0,0.0,-999,0.00,,,0.00,,2013-03-14 11:42:00,
2013-03-14 04:53:00,47.0,-99.9,30.29,East,84,0.0,0.0,-999,0.00,,,0.00,,2013-03-14 11:53:00,
2013-03-14 05:02:00,47.0,-99.9,30.29,East,84,0.0,0.0,-999,0.00,,,0.00,,2013-03-14 12:02:00,
2013-03-14 05:12:00,47.0,-99.9,30.29,East,84,0.0,0.0,-999,0.00,,,0.00,,2013-03-14 12:12:00,
2013-03-14 05:22:00,46.0,-99.9,30.29,South,184,0.0,0.0,-999,0.00,,,0.00,,2013-03-14 12:22:00,
2013-03-14 05:33:00,47.0,-99.9,30.29,South,184,0.0,0.0,-999,0.00,,,0.00,,2013-03-14 12:33:00,
2013-03-14 05:43:00,47.0,-99.9,30.29,South,184,0.0,0.0,-999,0.00,,,0.00,,2013-03-14 12:43:00,
2013-03-14 05:52:00,46.0,-99.9,30.30,South,184,0.0,0.0,-999,0.00,,,0.00,,2013-03-14 12:52:00,
2013-03-14 06:03:00,46.0,-99.9,30.30,South,184,0.0,0.0,-999,0.00,,,0.00,,2013-03-14 13:03:00,
2013-03-14 06:13:00,46.0,-99.9,30.30,South,184,0.0,0.0,-999,0.00,,,0.00,,2013-03-14 13:13:00,
2013-03-14 06:22:00,46.0,-99.9,30.30,South,184,0.0,0.0,-999,0.00,,,0.00,,2013-03-14 13:22:00,
2013-03-14 06:32:00,44.0,-99.9,30.30,South,178,0.0,0.0,-999,0.00,,,0.00,,2013-03-14 13:32:00,
2013-03-14 06:43:00,44.0,-99.9,30.30,South,178,0.0,0.0,-999,0.00,,,0.00,,2013-03-14 13:43:00,
2013-03-14 06:53:00,45.0,-99.9,30.30,South,178,0.0,0.0,-999,0.00,,,0.00,,2013-03-14 13:53:00,
2013-03-14 07:02:00,45.0,-99.9,30.31,West,277,0.0,0.0,-999,0.00,,,0.00,,2013-03-14 14:02:00,
2013-03-14 07:12:00,45.0,-99.9,30.31,West,277,0.0,0.0,-999,0.00,,,0.00,,2013-03-14 14:12:00,
2013-03-14 07:22:00,45.0,-99.9,30.31,West,277,0.0,0.0,-999,0.00,,,0.00,,2013-03-14 14:22:00,
2013-03-14 07:32:00,46.0,-99.9,30.32,South,177,0.0,0.0,-999,0.00,,,0.00,,2013-03-14 14:32:00,
2013-03-14 07:43:00,46.0,-99.9,30.32,South,177,0.0,0.0,-999,0.00,,,0.00,,2013-03-14 14:43:00,
2013-03-14 07:53:00,46.0,-99.9,30.32,South,177,0.0,0.0,-999,0.00,,,0.00,,2013-03-14 14:53:00,
2013-03-14 08:02:00,48.0,-99.9,30.33,SSE,164,0.0,0.0,-999,0.00,,,0.00,,2013-03-14 15:02:00,
2013-03-14 08:12:00,48.0,-99.9,30.33,SSE,164,0.0,0.0,-999,0.00,,,0.00,,2013-03-14 15:12:00,
2013-03-14 08:22:00,50.0,-99.9,30.33,South,172,0.0,5.0,-999,0.00,,,0.00,,2013-03-14 15:22:00,
2013-03-14 08:33:00,52.0,-99.9,30.34,South,172,0.0,0.0,-999,0.00,,,0.00,,2013-03-14 15:33:00,
2013-03-14 08:43:00,52.0,-99.9,30.34,South,172,0.0,0.0,-999,0.00,,,0.00,,2013-03-14 15:43:00,
2013-03-14 08:52:00,54.0,-99.9,30.35,South,172,0.0,0.0,-999,0.00,,,0.00,,2013-03-14 15:52:00,
2013-03-14 09:03:00,57.0,-99.9,30.35,South,172,0.0,0.0,-999,0.00,,,0.00,,2013-03-14 16:03:00,
2013-03-14 09:13:00,57.0,-99.9,30.35,South,172,0.0,0.0,-999,0.00,,,0.00,,2013-03-14 16:13:00,
2013-03-14 09:23:00,60.0,-99.9,30.35,South,175,0.0,0.0,-999,0.00,,,0.00,,2013-03-14 16:23:00,
2013-03-14 09:33:00,63.0,-99.9,30.35,SSE,165,0.0,0.0,-999,0.00,,,0.00,,2013-03-14 16:33:00,
2013-03-14 09:42:00,63.0,-99.9,30.35,SSE,165,0.0,0.0,-999,0.00,,,0.00,,2013-03-14 16:42:00,
2013-03-14 09:52:00,64.0,-99.9,30.35,SSE,150,0.0,0.0,-999,0.00,,,0.00,,2013-03-14 16:52:00,
2013-03-14 10:02:00,66.0,-99.9,30.35,SSE,150,0.0,0.0,-999,0.00,,,0.00,,2013-03-14 17:02:00,
2013-03-14 10:13:00,66.0,-99.9,30.35,SSE,150,0.0,0.0,-999,0.00,,,0.00,,2013-03-14 17:13:00,
2013-03-14 10:23:00,69.0,-99.9,30.34,SSE,150,0.0,0.0,-999,0.00,,,0.00,,2013-03-14 17:23:00,
2013-03-14 10:33:00,71.0,-99.9,30.34,SSE,150,0.0,0.0,-999,0.00,,,0.00,,2013-03-14 17:33:00,
2013-03-14 10:42:00,71.0,-99.9,30.34,SSE,150,0.0,0.0,-999,0.00,,,0.00,,2013-03-14 17:42:00,
2013-03-14 10:53:00,73.0,-99.9,30.34,SSE,150,0.0,0.0,-999,0.00,,,0.00,,2013-03-14 17:53:00,
2013-03-14 11:03:00,74.0,-99.9,30.33,South,188,0.0,0.0,-999,0.00,,,0.00,,2013-03-14 18:03:00,
2013-03-14 11:13:00,74.0,-99.9,30.33,South,188,0.0,0.0,-999,0.00,,,0.00,,2013-03-14 18:13:00,
2013-03-14 11:23:00,76.0,-99.9,30.33,South,188,0.0,0.0,-999,0.00,,,0.00,,2013-03-14 18:23:00,
2013-03-14 11:33:00,77.0,-99.9,30.33,NE,52,0.0,0.0,-999,0.00,,,0.00,,2013-03-14 18:33:00,
2013-03-14 11:43:00,77.0,-99.9,30.33,NE,52,0.0,0.0,-999,0.00,,,0.00,,2013-03-14 18:43:00,
2013-03-14 11:53:00,79.0,-99.9,30.32,ENE,71,0.0,0.0,-999,0.00,,,0.00,,2013-03-14 18:53:00,
2013-03-14 12:03:00,80.0,-99.9,30.31,South,178,1.0,3.0,-999,0.00,,,0.00,,2013-03-14 19:03:00,
2013-03-14 12:12:00,80.0,-99.9,30.31,South,178,1.0,3.0,-999,0.00,,,0.00,,2013-03-14 19:12:00,
2013-03-14 12:23:00,79.0,-99.9,30.30,NNE,14,3.0,6.0,-999,0.00,,,0.00,,2013-03-14 19:23:00,
2013-03-14 12:32:00,79.0,-99.9,30.29,SE,142,0.0,0.0,-999,0.00,,,0.00,,2013-03-14 19:32:00,
2013-03-14 12:43:00,79.0,-99.9,30.29,SE,142,0.0,0.0,-999,0.00,,,0.00,,2013-03-14 19:43:00,
2013-03-14 12:52:00,79.0,-99.9,30.29,ENE,70,0.0,0.0,-999,0.00,,,0.00,,2013-03-14 19:52:00,
2013-03-14 13:02:00,80.0,-99.9,30.27,SSE,158,0.0,0.0,-999,0.00,,,0.00,,2013-03-14 20:02:00,
2013-03-14 13:12:00,80.0,-99.9,30.27,SSE,158,0.0,0.0,-999,0.00,,,0.00,,2013-03-14 20:12:00,
2013-03-14 13:22:00,80.0,-99.9,30.27,North,358,0.0,0.0,-999,0.00,,,0.00,,2013-03-14 20:22:00,
2013-03-14 13:32:00,79.0,-99.9,30.26,WSW,241,0.0,0.0,-999,0.00,,,0.00,,2013-03-14 20:32:00,
2013-03-14 13:43:00,79.0,-99.9,30.26,WSW,241,0.0,0.0,-999,0.00,,,0.00,,2013-03-14 20:43:00,
2013-03-14 13:53:00,79.0,-99.9,30.25,North,1,2.0,7.0,-999,0.00,,,0.00,,2013-03-14 20:53:00,
2013-03-14 14:03:00,80.0,-99.9,30.24,West,278,1.0,5.0,-999,0.00,,,0.00,,2013-03-14 21:03:00,
2013-03-14 14:13:00,80.0,-99.9,30.24,West,278,1.0,5.0,-999,0.00,,,0.00,,2013-03-14 21:13:00,
2013-03-14 14:23:00,80.0,-99.9,30.24,WSW,246,0.0,0.0,-999,0.00,,,0.00,,2013-03-14 21:23:00,
2013-03-14 14:33:00,80.0,-99.9,30.23,East,80,3.0,6.0,-999,0.00,,,0.00,,2013-03-14 21:33:00,
2013-03-14 14:43:00,80.0,-99.9,30.23,East,80,3.0,6.0,-999,0.00,,,0.00,,2013-03-14 21:43:00,
2013-03-14 14:53:00,80.0,-99.9,30.22,ESE,108,0.0,0.0,-999,0.00,,,0.00,,2013-03-14 21:53:00,
2013-03-14 15:04:00,80.0,-99.9,30.22,SW,227,0.0,0.0,-999,0.00,,,0.00,,2013-03-14 22:04:00,
2013-03-14 15:13:00,80.0,-99.9,30.22,SW,227,0.0,0.0,-999,0.00,,,0.00,,2013-03-14 22:13:00,
2013-03-14 15:23:00,81.0,-99.9,30.22,NNE,18,0.0,3.0,-999,0.00,,,0.00,,2013-03-14 22:23:00,
2013-03-14 15:33:00,81.0,-99.9,30.21,NW,317,0.0,6.0,-999,0.00,,,0.00,,2013-03-14 22:33:00,
2013-03-14 15:42:00,81.0,-99.9,30.21,NW,317,0.0,6.0,-999,0.00,,,0.00,,2013-03-14 22:42:00,
2013-03-14 15:53:00,82.0,-99.9,30.20,West,265,0.0,0.0,-999,0.00,,,0.00,,2013-03-14 22:53:00,
2013-03-14 16:03:00,82.0,-99.9,30.20,NW,320,0.0,0.0,-999,0.00,,,0.00,,2013-03-14 23:03:00,
2013-03-14 16:12:00,82.0,-99.9,30.20,NW,320,0.0,0.0,-999,0.00,,,0.00,,2013-03-14 23:12:00,
2013-03-14 16:23:00,82.0,-99.9,30.20,NW,315,0.0,0.0,-999,0.00,,,0.00,,2013-03-14 23:23:00,
2013-03-14 16:33:00,83.0,-99.9,30.20,NNE,30,0.0,0.0,-999,0.00,,,0.00,,2013-03-14 23:33:00,
2013-03-14 16:43:00,83.0,-99.9,30.20,NNE,30,0.0,0.0,-999,0.00,,,0.00,,2013-03-14 23:43:00,
2013-03-14 16:54:00,84.0,-99.9,30.20,WSW,248,0.0,0.0,-999,0.00,,,0.00,,2013-03-14 23:54:00,
2013-03-14 17:02:00,83.0,-99.9,30.19,WSW,248,0.0,0.0,-999,0.00,,,0.00,,2013-03-15 00:02:00,
2013-03-14 17:12:00,85.0,-99.9,30.19,WSW,248,0.0,0.0,-999,0.00,,,0.00,,2013-03-15 00:12:00,
2013-03-14 17:23:00,85.0,-99.9,30.19,WSW,248,0.0,0.0,-999,0.00,,,0.00,,2013-03-15 00:23:00,
2013-03-14 17:33:00,85.0,-99.9,30.19,NNW,345,0.0,0.0,-999,0.00,,,0.00,,2013-03-15 00:33:00,
2013-03-14 17:43:00,85.0,-99.9,30.19,NNW,345,0.0,0.0,-999,0.00,,,0.00,,2013-03-15 00:43:00,
2013-03-14 17:52:00,84.0,-99.9,30.19,NNW,345,0.0,0.0,-999,0.00,,,0.00,,2013-03-15 00:52:00,
2013-03-14 18:02:00,81.0,-99.9,30.19,NNW,345,0.0,0.0,-999,0.00,,,0.00,,2013-03-15 01:02:00,
2013-03-14 18:23:00,80.0,-99.9,30.19,NNW,345,0.0,0.0,-999,0.00,,,0.00,,2013-03-15 01:23:00,
2013-03-14 18:33:00,78.0,-99.9,30.19,NNW,345,0.0,0.0,-999,0.00,,,0.00,,2013-03-15 01:33:00,
2013-03-14 18:52:00,76.0,-99.9,30.19,NNW,345,0.0,0.0,-999,0.00,,,0.00,,2013-03-15 01:52:00,
2013-03-14 19:03:00,73.0,-99.9,30.19,NNW,345,0.0,0.0,-999,0.00,,,0.00,,2013-03-15 02:03:00,
2013-03-14 19:22:00,71.0,-99.9,30.20,NNW,345,0.0,0.0,-999,0.00,,,0.00,,2013-03-15 02:22:00,
2013-03-14 19:32:00,71.0,-99.9,30.20,NNW,345,0.0,0.0,-999,0.00,,,0.00,,2013-03-15 02:32:00,
2013-03-14 19:52:00,70.0,-99.9,30.20,NNW,345,0.0,0.0,-999,0.00,,,0.00,,2013-03-15 02:52:00,
2013-03-14 20:02:00,70.0,-99.9,30.20,NNW,345,0.0,0.0,-999,0.00,,,0.00,,2013-03-15 03:02:00,
2013-03-14 20:13:00,70.0,-99.9,30.20,NNW,345,0.0,0.0,-999,0.00,,,0.00,,2013-03-15 03:13:00,
2013-03-14 20:22:00,69.0,-99.9,30.20,NNW,345,0.0,0.0,-999,0.00,,,0.00,,2013-03-15 03:22:00,
2013-03-14 20:33:00,68.0,-99.9,30.22,NNW,345,0.0,0.0,-999,0.00,,,0.00,,2013-03-15 03:33:00,
2013-03-14 20:43:00,68.0,-99.9,30.22,NNW,345,0.0,0.0,-999,0.00,,,0.00,,2013-03-15 03:43:00,
2013-03-14 20:53:00,68.0,-99.9,30.22,NNW,345,0.0,0.0,-999,0.00,,,0.00,,2013-03-15 03:53:00,
2013-03-14 21:03:00,66.0,-99.9,30.22,NNW,345,0.0,0.0,-999,0.00,,,0.00,,2013-03-15 04:03:00,
2013-03-14 21:13:00,66.0,-99.9,30.22,NNW,345,0.0,0.0,-999,0.00,,,0.00,,2013-03-15 04:13:00,
2013-03-14 21:23:00,64.0,-99.9,30.22,NNW,345,0.0,0.0,-999,0.00,,,0.00,,2013-03-15 04:23:00,
2013-03-14 21:33:00,66.0,-99.9,30.23,NNW,345,0.0,0.0,-999,0.00,,,0.00,,2013-03-15 04:33:00,
2013-03-14 21:43:00,66.0,-99.9,30.23,NNW,345,0.0,0.0,-999,0.00,,,0.00,,2013-03-15 04:43:00,
2013-03-14 21:53:00,64.0,-99.9,30.23,NNW,345,0.0,0.0,-999,0.00,,,0.00,,2013-03-15 04:53:00,
2013-03-14 22:02:00,63.0,-99.9,30.23,NNW,345,0.0,0.0,-999,0.00,,,0.00,,2013-03-15 05:02:00,
2013-03-14 22:12:00,63.0,-99.9,30.23,NNW,345,0.0,0.0,-999,0.00,,,0.00,,2013-03-15 05:12:00,
2013-03-14 22:23:00,62.0,-99.9,30.23,NNW,345,0.0,0.0,-999,0.00,,,0.00,,2013-03-15 05:23:00,
2013-03-14 22:32:00,61.0,-99.9,30.24,NNW,345,0.0,0.0,-999,0.00,,,0.00,,2013-03-15 05:32:00,
2013-03-14 22:42:00,61.0,-99.9,30.24,NNW,345,0.0,0.0,-999,0.00,,,0.00,,2013-03-15 05:42:00,
2013-03-14 22:52:00,60.0,-99.9,30.24,NNW,345,0.0,0.0,-999,0.00,,,0.00,,2013-03-15 05:52:00,
2013-03-14 23:02:00,59.0,-99.9,30.24,NNW,345,0.0,0.0,-999,0.00,,,0.00,,2013-03-15 06:02:00,
2013-03-14 23:13:00,59.0,-99.9,30.24,NNW,345,0.0,0.0,-999,0.00,,,0.00,,2013-03-15 06:13:00,
2013-03-14 23:22:00,58.0,-99.9,30.24,NNW,345,0.0,0.0,-999,0.00,,,0.00,,2013-03-15 06:22:00,
2013-03-14 23:33:00,60.0,-99.9,30.24,NNW,345,0.0,0.0,-999,0.00,,,0.00,,2013-03-15 06:33:00,
2013-03-14 23:42:00,60.0,-99.9,30.24,NNW,345,0.0,0.0,-999,0.00,,,0.00,,2013-03-15 06:42:00,
2013-03-14 23:53:00,58.0,-99.9,30.24,NNW,345,0.0,0.0,-999,0.00,,,0.00,,2013-03-15 06:53:00,